Regional Weather Roundup
Issued by NWS

Home | Current Version | Previous Version | Graphics & Text | Print | Product List | Glossary On
Versions: 1 2 3 4 5 6 7 8 9 10 11 12 13 14 15 16 17 18 19 20 21 22 23 24 25 26 27 28 29 30 31 32 33 34 35 36 37 38 39 40 41 42 43 44 45 46 47 48 49 50
000
ASUS43 KMKX 272321
RWRWI

WISCONSIN REGIONAL WEATHER ROUNDUP
NATIONAL WEATHER SERVICE MILWAUKEE/SULLIVAN WI
600 PM CDT THU AUG 27 2015

NOTE: "FAIR" INDICATES FEW OR NO CLOUDS BELOW 12,000 FEET WITH NO
SIGNIFICANT WEATHER AND/OR OBSTRUCTIONS TO VISIBILITY.

WIZ001-002-006>008-014>016-023>028-280000-
NORTHWEST WISCONSIN

CITY           SKY/WX    TMP DP  RH WIND       PRES   REMARKS
SUPERIOR ARPT  PTSUNNY   60  50  70 NE5       30.02F
ASHLAND        MOSUNNY   70  60  70 NW3       30.03S
HAYWARD        CLOUDY    71  58  63 S7        30.05S
SIREN          PTSUNNY   72  59  64 S6        30.03F
CUMBERLAND     PTSUNNY   68  59  73 S6        30.05F
RICE LAKE      PTSUNNY   70  59  69 S6        30.06F
CHETEK         PTSUNNY  N/A N/A N/A CALM      30.06S
LADYSMITH      PTSUNNY   71  58  64 S6        30.08S
EAU CLAIRE     CLOUDY    72  56  57 S10       30.06S
MENOMONIE      CLOUDY    71  60  67 SE5       30.06S
NEW RICHMOND   CLOUDY    72  60  66 S9        30.04F
OSCEOLA        CLOUDY    72  61  69 SE8       30.05S
$$

WIZ003>005-009-010-017-018-280000-
NORTH CENTRAL WISCONSIN

CITY           SKY/WX    TMP DP  RH WIND       PRES   REMARKS
MANITOWISH WTR MOSUNNY   69  54  58 SW3       30.07R
ARBOR VITAE    MOSUNNY   72  56  57 SW5       30.08R
WOODRUFF       MOSUNNY   72  56  57 SW5       30.08R
RHINELANDER    SUNNY     72  54  53 SW8       30.10R
EAGLE RIVER    SUNNY     71  51  50 SW7       30.08R
LAND O LAKES   SUNNY     72  53  50 SW3       30.09R
PHILLIPS       CLOUDY    70  58  66 SW6       30.08R
TOMAHAWK       PTSUNNY   70  56  61 CALM      30.09R
MEDFORD        CLOUDY    69  60  73 SW3       30.09S
MERRILL        MOSUNNY   71  57  62 SW3       30.09S
$$

WIZ029-030-035-036-043>047-280000-
CENTRAL WISCONSIN

CITY           SKY/WX    TMP DP  RH WIND       PRES   REMARKS
WAUSAU         PTSUNNY   72  56  57 SW7       30.08R
MOSINEE        SUNNY     72  57  60 S8        30.10R
MARSHFIELD     CLOUDY    72  55  55 SW7       30.09R
STEVENS POINT  PTSUNNY   71  53  52 SW7       30.09S
WAUPACA        MOSUNNY   75  56  52 SE5       30.09R
WAUTOMA        MOSUNNY   76  56  49 S6        30.10R
WISC RAPIDS    PTSUNNY   74  55  51 SW7       30.10R
CAMP DOUGLAS   PTSUNNY   73  61  64 S6        30.08S
$$

WIZ011>013-019>022-031-037>040-048>050-280000-
NORTHEAST WISCONSIN

CITY           SKY/WX    TMP DP  RH WIND       PRES   REMARKS
ANTIGO         SUNNY     71  53  54 SW7       30.10R
SHAWANO        SUNNY     74  56  53 S5        30.09R
OCONTO         SUNNY     71  58  64 SE3       30.08S
STURGEON BAY   SUNNY     66  54  63 S9        30.13S
GREEN BAY      SUNNY     72  57  59 S6        30.09S
MANITOWOC      SUNNY     64  54  69 MISG      30.12R
APPLETON       MOSUNNY   72  54  53 S7        30.08F
CLINTONVILLE   SUNNY     72  55  56 S6        30.08S
OSHKOSH        MOSUNNY   72  57  59 S8        30.09S
$$

WIZ032>034-041-042-053>061-280000-
SOUTHWEST WISCONSIN

CITY           SKY/WX    TMP DP  RH WIND       PRES   REMARKS
LA CROSSE      PTSUNNY   75  58  55 S8        30.08R
SPARTA         PTSUNNY   73  56  55 S8        30.09S
VIROQUA        PTSUNNY   72  58  62 S5        30.11R
BOSCOBEL       PTSUNNY   75  59  57 S5        30.09S
PRAIRIE DU CHI CLOUDY    73  56  54 S5        30.09R
PLATTEVILLE    CLOUDY    70  61  72 S7        30.11S
$$

WIZ056-057-062-063-064-067-068-280000-
SOUTH CENTRAL WISCONSIN

CITY           SKY/WX    TMP DP  RH WIND       PRES   REMARKS
REEDSBURG      PTSUNNY   73  58  59 S8        30.09S
BARABOO/DELLS  PTSUNNY   73  55  51 SW10      30.10S
LONE ROCK      PTSUNNY   73  58  59 S8        30.10S
MINERAL POINT  PTSUNNY   72  55  56 S7        30.11F
MADISON        PTSUNNY   73  57  57 VRB7      30.10R
MIDDLETON      PTSUNNY   74  55  50 SW9       30.11R
WATERTOWN      MOSUNNY   70  57  63 S3        30.10S
MONROE         MOSUNNY   70  57  64 S5        30.13R
JANESVILLE     MOSUNNY   73  55  53 SW8       30.11S
$$

WIZ051-052-058>065-066-070>072-280000-
SOUTHEAST WISCONSIN

CITY           SKY/WX    TMP DP  RH WIND       PRES   REMARKS
MILWAUKEE      PTSUNNY   68  53  58 S12       30.13R
WAUKESHA       MOSUNNY   70  54  56 S5        30.13S
MILWAUKEE/TIMM MOSUNNY   72  52  49 S7        30.13R
RACINE         MOSUNNY   67  54  63 S9        30.15S
BURLINGTON     MOSUNNY   68  54  61 S3        30.13R
KENOSHA        MOSUNNY   69  53  56 SE10      30.14S
FOND DU LAC    MOSUNNY   72  56  57 S6        30.10S
SHEBOYGAN      SUNNY     66  55  67 S13       30.12R
WEST BEND      MOSUNNY   68  54  60 SE8       30.11S
JUNEAU         MOSUNNY   71  56  59 S7        30.12S
$$

LSZ147-162-280000-
LAKE SUPERIOR

STATION/POSITION TIME  TEMP    WIND        PRES    WAVE
                       AIR SEA DIR/SP/G            HT/PER
                 (UTC) (F)     (DEG/KT/KT) (MB)    (FT/S)
W MID LAKE BUOY  2250   59 58   80/  6/  6 1016.8F   0
DEVILS ISLAND    2300   58     110/  7/  8 1016.9S
PORT WING        2200   60      30/ 10/ 12 1016.6S
SAXON HARBOR     2240   68        CALM     1016.6S
$$

LMZ867-665-643>646-280000-
LAKE MICHIGAN

STATION/POSITION TIME  TEMP    WIND        PRES    WAVE
                       AIR SEA DIR/SP/G            HT/PER
                 (UTC) (F)     (DEG/KT/KT) (MB)    (FT/S)
CHAMBERS ISLAND  2200   68     150/  4/  9 1019.0S
S GREEN BAY BUOY 2300   69     120/  8/ 12 1020.0F
N MID LAKE BUOY  2250   62 65  210/ 14/ 16 1019.6R   1/ 3
NORTHPORT PIER   2200   64     150/  8/ 11 1019.3S
SISTER BAY       2234   68     170/ 10/ 12   N/A
ALGOMA LAKESHORE 2244          200/  8/  9   N/A
KEWAUNEE LAKESHO 2300   54     180/ 11/ 12 1018.6R
SHEBOYGAN LAKESH 2300   62     190/ 17/ 19 1020.3R
PORT WASHINGTON  2200   61     190/  5/ 10 1020.7
ATWATER BUOY     2300   53 47  200/  6/  8 1021.6R
MILWAUKEE LAKESH 2300   57     150/ 13/ 14   N/A
S MID LAKE BUOY  2250   65 69  200/  6/  6 1020.9F   1
KENOSHA   LAKESH 2300   61     180/ 10/ 12 1020.3S
$$

TC  - TEMPERATURE IN CELSIUS
VSB - VISIBILITY IN STATUTE MILES
WCI - WIND CHILL INDEX
HX  - HEAT INDEX



USA.gov is the U.S. government's official web portal to all federal, state and local government web resources and services.